Regional Weather Roundup
Issued by NWS

Home | Current Version | Previous Version | Graphics & Text | Print | Product List | Glossary Off
Versions: 1 2 3 4 5 6 7 8 9 10 11 12 13 14 15 16 17 18 19 20 21 22 23 24 25 26 27 28 29 30 31 32 33 34 35 36 37 38 39 40 41 42 43 44 45 46 47 48 49 50

000
ASUS43 KDTX 191401
RWRMI
MICHIGAN HOURLY REGIONAL WEATHER ROUNDUP
NATIONAL WEATHER SERVICE DETROIT/PONTIAC MI
1000 AM EDT THU OCT 19 2017

NOTE: "FAIR" INDICATES FEW OR NO CLOUDS BELOW 12,000 FEET WITH NO
SIGNIFICANT WEATHER AND/OR OBSTRUCTION TO VISIBILITY.

MIZ047>049-052>055-059>063-066>070-074>076-081>083-191500-
SOUTHEAST LOWER MICHIGAN

CITY           SKY/WX    TMP DP  RH WIND       PRES   REMARKS
ADRIAN         SUNNY     54  46  74 W10       30.13R
ALMA           CLOUDY    57  46  68 W13       30.08R
ANN ARBOR      SUNNY     54  47  77 S9        30.10R
BAD AXE        CLOUDY    58  47  65 W12G17    30.04R
CARO           MOSUNNY   58  47  66 SW10      30.05R
DETROIT CITY   MOSUNNY   57  47  69 W9        30.10R
DETROIT        MOSUNNY   57  47  69 SW13      30.11R
FLINT          CLOUDY    57  47  69 W12       30.08R
GROSSE ILE     MOSUNNY   57  47  69 W7        30.09F
HILLSDALE      MOSUNNY   55  45  67 W8        30.12R
HOWELL         MOSUNNY   58  48  68 W13G20    30.09R

CITY           SKY/WX    TMP DP  RH WIND       PRES   REMARKS
JACKSON        CLOUDY    57  47  69 SW12      30.11R
LAMBERTVILLE   SUNNY     59  47  64 SW7G16    30.12S
LANSING        CLOUDY    57  47  69 W12       30.11R
LAPEER         FAIR      58  47  65 W9        30.07R
MASON          CLOUDY    58  48  68 W6        30.10R
MONROE         SUNNY     58  46  63 W8G21     30.11S
MT. CLEMENS    PTSUNNY   59  48  66 SW13      30.06R
PONTIAC        CLOUDY    56  47  71 W10       30.08R
PORT HOPE        N/A     60  48  64 SW9       29.98R
PORT HURON     SUNNY     59  46  63 SW5       30.06S
TRI CITIES     CLOUDY    58  49  72 W13       30.07R
MIDLAND        FAIR      57  48  70 W9        30.05R
TROY           CLOUDY    55  45  69 SW10G16   30.10R
SAGINAW HB     MOSUNNY   57  46  67 SW8       30.05R
$$
MIZ043>046-050>051-056>058-064>065-071>073-077>080-191500-
SOUTHWEST LOWER MICHIGAN

CITY           SKY/WX    TMP DP  RH WIND       PRES   REMARKS
BATTLE CREEK   CLOUDY    55  49  80 W7        30.13R
BENTON HARBOR  MOSUNNY   60  46  59 NW7       30.14R
BIG RAPIDS     MOSUNNY   54  38  55 W8        30.07R
COLDWATER      CLOUDY    55  47  72 W8        30.13R
FREMONT        FAIR      55  38  53 W6        30.09R
HOLLAND        CLOUDY    61  41  47 NW7       30.12R
GRAND RAPIDS   CLOUDY    59  48  67 W10       30.10R
IONIA          FAIR      58  47  67 W9        30.09R
KALAMAZOO      MOSUNNY   57  48  72 W8        30.14R
LUDINGTON      MOSUNNY   57  34  42 W9        30.08R
MARSHALL       MOSUNNY   55  47  75 W8        30.11R
MOUNT PLEASANT CLOUDY    59  42  53 W6        30.06R
MUSKEGON       PTSUNNY   60  34  37 NW9       30.11R
SOUTH HAVEN    CLOUDY    60  47  63 NW9       30.13R
$$
MIZ016>042-191500-
NORTHERN LOWER MICHIGAN

CITY           SKY/WX    TMP DP  RH WIND       PRES   REMARKS
ALPENA         CLOUDY    58  35  42 W9        29.97R
BEAVER ISLAND  CLOUDY    57  30  36 W18G29    29.97R
BELLAIRE       CLOUDY    56  30  38 W8        30.00R
CADILLAC       PTSUNNY   54  31  42 W7        30.05R
CHARLEVOIX     MOSUNNY   57  33  39 W18G26    30.02R
FRANKFORT      MOSUNNY   58  34  40 W12G20    30.05R
GAYLORD        CLOUDY    52  30  43 W8        29.98R
GRAYLING       MOSUNNY   52  35  53 SW8       30.01R
HARBOR SPRINGS CLOUDY    57  27  32 W14G26    29.97R
HOUGHTON LAKE  CLOUDY    54  40  59 W9        30.03R
MANISTEE       CLOUDY    58  35  42 W14       30.06R
OSCODA         CLOUDY    59  45  60 W8        29.99R
PELLSTON       MOSUNNY   57  28  33 W13G21    29.96R
ROGERS CITY    SUNNY     56  33  42 W8        29.97R
TRAVERSE CITY  CLOUDY    55  33  43 SW7       30.01R
$$
MIZ007>008-015-191500-
EASTERN UPPER MICHIGAN

CITY           SKY/WX    TMP DP  RH WIND       PRES   REMARKS
KINROSS        SUNNY     52  26  36 W10G20    29.92R
MACKINAC ISLAN SUNNY     57  28  32 W18G32    29.93R
NEWBERRY       SUNNY     50  24  35 W16       29.92R
S. S. MARIE    SUNNY     55  28  35 W14G24    29.89R
MUNISING         N/A     51  25  36 SW7       29.93R
$$
MIZ004>006-011>014-085-191500-
CENTRAL UPPER MICHIGAN

CITY           SKY/WX    TMP DP  RH WIND       PRES   REMARKS
MANISTIQUE     CLOUDY    52   9  18 W9        29.96R
ESCANABA       MOSUNNY   50  27  40 W14       30.00R
MENOMINEE      CLOUDY    49  29  46 W7        30.06R
SAWYER-GWINN   SUNNY     45  23  42 W10       29.96R
$$
MIZ001>003-009>011-084-191500-
WESTERN UPPER MICHIGAN

CITY           SKY/WX    TMP DP  RH WIND       PRES   REMARKS
IRON MOUNTAIN  CLOUDY    49  23  36 W7        30.00R
HOUGHTON       LGT RAIN  53  30  41 W28G41    29.88R
COPPER HARBOR    N/A     54  32  43 NW15G25   29.85R
IRONWOOD       MOSUNNY   49  26  41 W13       30.01R
$$

ABBREVIATIONS USED IN REMARKS
   TC - TEMPERATURE IN CELSIUS
  WCI - WIND CHILL INDEX
   HX - HEAT INDEX
  VSB - VISIBILITY




USA.gov is the U.S. government's official web portal to all federal, state and local government web resources and services.